Everett, WA

6:18 AM PDT on June 27, 2017 (GMT -0700)
Snohomish County

Weather History for KPAE - November, 2012

Change the Weather History Date:

Sunday, November 4, 2012

  Actual Average Record
Temperature  
Mean Temperature 58 °F -  
Max Temperature 63 °F 55 °F 69 °F (2010)
Min Temperature 53 °F 41 °F 27 °F (1973)
Degree Days  
Heating Degree Days 7    
Growing Degree Days 8 (Base 50)    
Moisture  
Dew Point 54 °F    
Average Humidity 85    
Maximum Humidity 94    
Minimum Humidity 75    
Precipitation  
Precipitation 0.09 in - - ()
Sea Level Pressure  
Sea Level Pressure 30.21 in    
Wind  
Wind Speed 12 mph (South)    
Max Wind Speed 28 mph    
Max Gust Speed 39 mph    
Visibility 10 miles    
Events Rain    
Averages and records for this station are not official NWS values.
T = Trace of Precipitation, MM = Missing Value Source: NWS Daily Summary

Daily Weather History Graph

Daily Weather History Graph

Search for Another Location

Airport or City:

Trip Planner

Search our weather history database for the weather conditions in past years. The results will help you decide how hot, cold, wet, or windy it might be!

Date:

Astronomy

Nov. 04, 2012 Rise Set
Actual Time 6:59 AM PST 4:45 PM PST
Civil Twilight 6:26 AM PST 5:18 PM PST
Nautical Twilight 5:49 AM PST 5:54 PM PST
Astronomical Twilight 5:13 AM PST 6:31 PM PST
Moon 9:25 PM PST (11/4) 11:51 AM PST (11/4)
Length of Visible Light 10h 51m
Length of Day
9h 45m
Waning Gibbous, 71% of the Moon is Illuminated
Nov 4
Waning Gibbous
Nov 6
Last Quarter
Nov 13
New
Nov 20
First Quarter
Nov 28
Full

Hourly Weather History & Observations

Time (PST) Temp. Dew Point Humidity Pressure Visibility Wind Dir Wind Speed Gust Speed Precip Events Conditions
12:18 AM 55.4 °F 51.8 °F 88% 30.18 in 10.0 mi South 5.8 mph - 0.00 in Rain Light Rain
12:53 AM 55.0 °F 52.0 °F 89% 30.17 in 10.0 mi SSE 10.4 mph - 0.00 in   Overcast
1:53 AM 55.0 °F 52.0 °F 89% 30.19 in 10.0 mi SSE 6.9 mph - N/A   Overcast
1:53 AM 54.0 °F 51.1 °F 90% 30.20 in 10.0 mi SSE 8.1 mph - N/A   Overcast
2:31 AM 53.6 °F 51.8 °F 94% 30.19 in 10.0 mi SSE 11.5 mph - N/A   Overcast
2:53 AM 54.0 °F 51.1 °F 90% 30.19 in 10.0 mi SSE 10.4 mph - N/A   Overcast
3:53 AM 54.0 °F 51.1 °F 90% 30.19 in 10.0 mi SSE 9.2 mph - N/A   Overcast
4:53 AM 55.0 °F 51.1 °F 86% 30.20 in 10.0 mi SE 5.8 mph - N/A   Overcast
5:53 AM 55.0 °F 52.0 °F 89% 30.20 in 10.0 mi SSE 6.9 mph - N/A   Overcast
6:03 AM 55.4 °F 51.8 °F 88% 30.19 in 10.0 mi SSE 11.5 mph 17.3 mph N/A   Overcast
6:33 AM 55.4 °F 53.6 °F 94% 30.19 in 10.0 mi SSE 8.1 mph - N/A   Overcast
6:53 AM 55.0 °F 52.0 °F 89% 30.20 in 10.0 mi Variable 6.9 mph - N/A   Overcast
7:06 AM 55.4 °F 51.8 °F 88% 30.19 in 10.0 mi Variable 6.9 mph - N/A   Mostly Cloudy
7:45 AM 55.4 °F 51.8 °F 88% 30.20 in 10.0 mi SSE 11.5 mph 17.3 mph N/A   Overcast
7:53 AM 57.0 °F 53.1 °F 87% 30.21 in 10.0 mi SSE 10.4 mph 18.4 mph N/A   Overcast
8:53 AM 57.0 °F 53.1 °F 87% 30.22 in 10.0 mi SSE 11.5 mph - N/A   Overcast
9:53 AM 59.0 °F 53.1 °F 81% 30.21 in 10.0 mi SSE 13.8 mph 20.7 mph 0.01 in   Mostly Cloudy
10:53 AM 59.0 °F 54.0 °F 83% 30.22 in 10.0 mi SSE 15.0 mph - N/A   Overcast
11:10 AM 60.8 °F 55.4 °F 82% 30.21 in 10.0 mi South 13.8 mph 25.3 mph N/A   Overcast
11:53 AM 61.0 °F 55.0 °F 81% 30.21 in 10.0 mi South 18.4 mph 28.8 mph N/A   Mostly Cloudy
12:53 PM 63.0 °F 55.0 °F 75% 30.20 in 10.0 mi South 21.9 mph 29.9 mph N/A   Mostly Cloudy
1:00 PM 62.6 °F 55.4 °F 77% 30.21 in 10.0 mi South 21.9 mph 29.9 mph N/A   Mostly Cloudy
1:53 PM 62.1 °F 55.9 °F 80% 30.20 in 10.0 mi South 20.7 mph 31.1 mph N/A   Mostly Cloudy
2:53 PM 62.1 °F 57.0 °F 84% 30.20 in 10.0 mi South 27.6 mph 38.0 mph N/A   Mostly Cloudy
3:40 PM 62.6 °F 57.2 °F 82% 30.18 in 10.0 mi South 26.5 mph 36.8 mph N/A   Mostly Cloudy
3:53 PM 62.1 °F 57.0 °F 84% 30.18 in 10.0 mi South 26.5 mph 39.1 mph N/A   Mostly Cloudy
4:53 PM 62.1 °F 55.9 °F 80% 30.23 in 10.0 mi South 16.1 mph - N/A   Overcast
5:00 PM 62.6 °F 55.4 °F 77% 30.23 in 10.0 mi South 16.1 mph - N/A   Overcast
5:32 PM 62.6 °F 55.4 °F 77% 30.22 in 10.0 mi South 18.4 mph 25.3 mph N/A   Scattered Clouds
5:53 PM 62.1 °F 55.9 °F 80% 30.22 in 10.0 mi South 19.6 mph 27.6 mph N/A   Scattered Clouds
6:11 PM 62.6 °F 55.4 °F 77% 30.23 in 10.0 mi South 19.6 mph 31.1 mph N/A   Mostly Cloudy
6:39 PM 62.6 °F 57.2 °F 82% 30.22 in 10.0 mi SSW 21.9 mph 27.6 mph N/A   Overcast
6:53 PM 61.0 °F 57.0 °F 87% 30.23 in 10.0 mi South 21.9 mph 29.9 mph N/A   Overcast
7:53 PM 61.0 °F 57.9 °F 90% 30.21 in 10.0 mi South 21.9 mph 27.6 mph 0.02 in Rain Light Rain
8:53 PM 60.8 °F 57.2 °F 88% 30.23 in 4.0 mi SSW 16.1 mph 25.3 mph N/A Rain Rain
9:53 PM 60.1 °F 57.0 °F 90% 30.24 in 10.0 mi SSW 18.4 mph 26.5 mph 0.04 in Rain Light Rain
10:43 PM 55.4 °F 53.6 °F 94% 30.27 in 4.0 mi West 10.4 mph - 0.01 in Rain Light Rain
10:53 PM 54.0 °F 51.1 °F 90% 30.27 in 2.5 mi NW 10.4 mph - 0.02 in Rain Light Rain